Albany, GA

4:27 PM EDT on August 26, 2016 (GMT -0400)
Southwest Georgia Regional

Weather History for KABY - March, 2014

Change the Weather History Date:

Tuesday, March 18, 2014

  Actual Average Record
Temperature  
Mean Temperature 52 °F 60 °F  
Max Temperature 60 °F 73 °F 90 °F (1945)
Min Temperature 44 °F 47 °F 27 °F (1988)
Degree Days  
Heating Degree Days 13 6  
Month to date heating degree days 186 144  
Since 1 July heating degree days 1782 1704  
Cooling Degree Days 0 1  
Month to date cooling degree days 0 18  
Year to date cooling degree days 4 27  
Growing Degree Days 2 (Base 50)    
Moisture  
Dew Point 47 °F    
Average Humidity 84    
Maximum Humidity 100    
Minimum Humidity 67    
Precipitation  
Precipitation 0.06 in 0.16 in 0.63 in (2013)
Month to date precipitation 2.69  
Year to date precipitation 11.67  
Sea Level Pressure  
Sea Level Pressure 29.95 in    
Wind  
Wind Speed 7 mph (NE)    
Max Wind Speed 16 mph    
Max Gust Speed 21 mph    
Visibility 8 miles    
Events Rain    
T = Trace of Precipitation, MM = Missing Value Source: NWS Daily Summary

Daily Weather History Graph

Daily Weather History Graph

Search for Another Location

Airport or City:

Trip Planner

Search our weather history database for the weather conditions in past years. The results will help you decide how hot, cold, wet, or windy it might be!

Date:

Astronomy

Mar. 18, 2014 Rise Set
Actual Time 7:43 AM EDT 7:46 PM EDT
Civil Twilight 7:18 AM EDT 8:11 PM EDT
Nautical Twilight 6:50 AM EDT 8:39 PM EDT
Astronomical Twilight 6:22 AM EDT 9:07 PM EDT
Moon 9:53 PM EDT (3/18) 8:40 AM EDT (3/18)
Length of Visible Light 12h 52m
Length of Day
12h 03m
Waning Gibbous, 96% of the Moon is Illuminated
Mar 18
Waning Gibbous
Mar 23
Last Quarter
Mar 30
New
Apr 7
First Quarter
Apr 15
Full

Hourly Weather History & Observations

Time (EDT) Temp. Windchill Dew Point Humidity Pressure Visibility Wind Dir Wind Speed Gust Speed Precip Events Conditions
12:07 AM 55.4 °F - 53.6 °F 94% 29.79 in 10.0 mi North 6.9 mph 17.3 mph N/A   Overcast
12:14 AM 55.4 °F - 53.6 °F 94% 29.78 in 10.0 mi North 8.1 mph - N/A   Overcast
12:26 AM 55.4 °F - 53.6 °F 94% 29.79 in 10.0 mi NNE 4.6 mph - 0.00 in Rain Light Rain
12:53 AM 54.0 °F - 52.0 °F 93% 29.80 in 10.0 mi North 9.2 mph - 0.00 in Rain Light Rain
1:02 AM 53.6 °F - 51.8 °F 94% 29.80 in 10.0 mi North 10.4 mph - 0.00 in Rain Light Rain
1:53 AM 50.0 °F - 48.9 °F 96% 29.78 in 10.0 mi NNE 8.1 mph - 0.00 in Rain Light Rain
2:53 AM 48.0 °F - 46.9 °F 96% 29.82 in 4.0 mi North 8.1 mph - 0.05 in Rain Rain
3:53 AM 48.0 °F - 46.0 °F 93% 29.80 in 10.0 mi North 5.8 mph - 0.01 in Rain Light Rain
4:53 AM 46.9 °F - 45.0 °F 93% 29.80 in 10.0 mi North 6.9 mph - 0.00 in Rain Light Rain
5:53 AM 46.0 °F 42.5 °F 45.0 °F 96% 29.84 in 9.0 mi NNE 6.9 mph - 0.00 in   Overcast
6:53 AM 45.0 °F 38.2 °F 44.1 °F 97% 29.81 in 5.0 mi ENE 15.0 mph - N/A   Overcast
7:53 AM 45.0 °F 41.2 °F 44.1 °F 97% 29.87 in 5.0 mi NNE 6.9 mph 20.7 mph N/A   Overcast
8:53 AM 45.0 °F 42.6 °F 43.0 °F 93% 29.95 in 4.0 mi NE 4.6 mph - N/A   Overcast
9:48 AM 44.6 °F 40.7 °F 42.8 °F 93% 30.01 in 1.8 mi NNW 6.9 mph - N/A   Overcast
9:53 AM 44.1 °F 40.8 °F 43.0 °F 96% 30.00 in 1.5 mi North 5.8 mph - N/A   Overcast
10:13 AM 44.6 °F 41.4 °F 42.8 °F 93% 30.01 in 2.0 mi NNE 5.8 mph - N/A   Overcast
10:24 AM 44.6 °F 43.1 °F 42.8 °F 93% 30.02 in 3.0 mi NE 3.5 mph - N/A   Overcast
10:53 AM 46.0 °F 44.8 °F 43.0 °F 89% 30.03 in 9.0 mi Variable 3.5 mph - N/A   Overcast
11:53 AM 46.9 °F - 44.1 °F 90% 30.04 in 10.0 mi NE 9.2 mph - N/A   Overcast
12:50 PM 50.0 °F - 44.6 °F 82% 30.02 in 10.0 mi ENE 10.4 mph - N/A   Overcast
12:53 PM 51.1 °F - 45.0 °F 80% 30.02 in 10.0 mi ENE 10.4 mph - N/A   Overcast
1:53 PM 54.0 °F - 46.0 °F 75% 30.00 in 10.0 mi NE 9.2 mph - N/A   Mostly Cloudy
2:37 PM 55.4 °F - 46.4 °F 72% 29.98 in 10.0 mi ENE 6.9 mph - N/A   Mostly Cloudy
2:53 PM 57.0 °F - 48.0 °F 72% 29.98 in 10.0 mi ENE 6.9 mph - N/A   Mostly Cloudy
3:53 PM 59.0 °F - 48.0 °F 67% 29.99 in 10.0 mi NNE 5.8 mph - N/A   Mostly Cloudy
4:53 PM 59.0 °F - 48.0 °F 67% 29.99 in 10.0 mi Calm Calm - N/A   Overcast
5:53 PM 57.9 °F - 48.0 °F 70% 30.00 in 10.0 mi East 4.6 mph - N/A   Overcast
6:45 PM 57.2 °F - 48.2 °F 72% 30.01 in 10.0 mi SE 5.8 mph - N/A   Overcast
6:47 PM 57.2 °F - 48.2 °F 72% 30.01 in 10.0 mi SE 3.5 mph - N/A   Overcast
6:53 PM 57.9 °F - 48.9 °F 72% 30.01 in 10.0 mi SE 3.5 mph - N/A   Overcast
7:53 PM 57.0 °F - 48.9 °F 74% 30.02 in 10.0 mi East 3.5 mph - N/A   Overcast
8:53 PM 57.0 °F - 48.9 °F 74% 30.05 in 10.0 mi East 5.8 mph - N/A   Overcast
9:53 PM 55.9 °F - 50.0 °F 80% 30.08 in 10.0 mi East 5.8 mph - N/A   Overcast
10:53 PM 55.0 °F - 50.0 °F 83% 30.08 in 10.0 mi East 8.1 mph - N/A   Overcast
11:07 PM 55.4 °F - 50.0 °F 82% 30.07 in 10.0 mi East 8.1 mph - N/A   Overcast
11:53 PM 54.0 °F - 48.9 °F 83% 30.08 in 10.0 mi ESE 9.2 mph - N/A   Overcast